HORIZONS-3E

Last updated on Sun Jun 21 2026 00:03:07 GMT+0000 (Coordinated Universal Time)

1 43633U 18074B 26170.85516841 -.00000037 00000+0 00000+0 0 9992 2 43633 0.0016 83.0794 0000893 215.5434 86.3125 1.00267073 28363
UTC large
Height (km)
Speed (km/s)
/
Latitude / Longitude
Inclination (degrees)
Orbital Period (minutes)
Azimuth
Elevation
Range (km)
Doppler Factor

Next 0 passes for location: London (51.5072 / 0.1276)

No passes found over London.
HORIZONS-3E